Regional Weather Roundup
Issued by NWS San Diego, CA

Home | Current Version | Previous Version | Text Only | Print | Product List | Glossary On
Versions: 1 2 3 4 5 6 7 8 9 10 11 12 13 14 15 16 17 18 19 20 21 22 23 24 25 26 27
000
ASUS46 KSGX 221211
RWRSGX

SAN DIEGO HOURLY WEATHER ROUNDUP
NATIONAL WEATHER SERVICE SAN DIEGO CA
500 AM PDT SUN APR 22 2018

NOTE: "FAIR" INDICATES FEW OR NO CLOUDS BELOW 12,000 FEET WITH NO
SIGNIFICANT WEATHER AND/OR OBSTRUCTIONS TO VISIBILITY.

CAZ042-043-060-061-PZZ750-775-221300-

GREATER SAN DIEGO AREA

CITY           SKY/WX    TMP DP  RH WIND       PRES   REMARKS
SAN DIEGO AP   PTCLDY    59  52  77 CALM      29.95F
NATIONAL CITY    N/A     56  52  86 CALM      29.94F
CHULA VISTA      N/A     53  51  92 CALM      29.85F
IMPERIAL BEACH CLEAR     51  48  89 E6        29.94F
BROWN FIELD    CLEAR     57  49  74 SE6       29.93F
MIRAMAR MCAS   CLEAR     54  45  71 E7        29.93F
MONTGOMERY FLD PTCLDY    56  50  80 NE5       29.94F
GILLESPIE FLD  FAIR      52  45  76 CALM      29.94S

$$

NORTH SAN DIEGO COUNTY

CITY           SKY/WX    TMP DP  RH WIND       PRES   REMARKS
CAMP PENDLETON PTCLDY    45  44  97 E5        29.95S
OCEANSIDE AP   PTCLDY    49  46  90 CALM      29.94S
OCEANSIDE HBR    N/A     52  50  92 S6        29.96S
VISTA            N/A     51  46  82 CALM      29.92S
CARLSBAD       PTCLDY    56  49  77 CALM      29.93S
DEL MAR          N/A     55  54  97 CALM      29.95F
LA JOLLA SCRIP   N/A     58  55  90 NE2       29.93F
FALLBROOK        N/A     56  54  94 CALM      29.95S
ESCONDIDO        N/A     55  45  68 CALM      29.94F
SAN MARCOS       N/A     58  48  69 CALM      29.97F
POWAY            N/A     49  43  79 CALM      29.93F

$$

EAST SAN DIEGO COUNTY

CITY           SKY/WX    TMP DP  RH WIND       PRES   REMARKS
RAMONA         CLEAR     46  40  79 CALM      29.96F
SANTEE LAKES     N/A     51  45  82 CALM      29.93F
LA MESA          N/A     57  47  68 CALM      29.87F
JAMUL            N/A     52  42  69 CALM      29.93F
CAMPO            N/A     44  29  55 NE5       29.98S

$$

ORANGE COUNTY AND THE LOS ANGELES BASIN

CITY           SKY/WX    TMP DP  RH WIND       PRES   REMARKS
JOHN WAYNE AP  CLEAR     57  51  80 CALM      29.93F
LAGUNA BEACH     N/A     51  48  90 CALM      29.89S
LAKE FOREST FR   N/A     57  41  56 CALM      29.81S
HUNTINGTON BCH   N/A     51  49  93 CALM      29.95S
LOS ALAMITOS   FAIR      53  52  95 CALM      29.93F
FULLERTON      CLEAR     58  52  80 CALM      29.93F
LONG BEACH     CLEAR     57  53  86 CALM      29.94S
L.A. AP        PTCLDY    57  53  86 CALM      29.94S
L.A. DOWNTOWN  CLEAR     57  52  83 CALM      29.94R

$$

THE INLAND EMPIRE

CITY           SKY/WX    TMP DP  RH WIND       PRES   REMARKS
CORONA         CLEAR     47  44  90 CALM      29.95S
CHINO          CLEAR     57  49  74 CALM      29.96S
ONTARIO        PTCLDY    60  46  59 CALM      29.95S
SAN BERNARDINO FAIR      60  32  34 CALM      29.96S
RIVERSIDE AP   PTCLDY    56  43  61 CALM      29.95S
MORENO VALLEY    N/A     62  40  45 CALM      28.07S
MARCH ARB      PTCLDY    47  33  58 CALM      29.96S
HORSETHIEF CYN   N/A     57  26  30 W5        29.93S
PERRIS           N/A     58  44  61 CALM      29.90F
HEMET EAST       N/A     61  25  25 CALM      29.86F
FRENCH VALLEY  FAIR      54  39  58 CALM      29.96F
TEMECULA         N/A     53  49  83 CALM      30.02S

$$

SAN BERNARDINO AND RIVERSIDE COUNTY MOUNTAINS

CITY           SKY/WX    TMP DP  RH WIND       PRES   REMARKS
BIG BEAR AP    PTCLDY    32  18  55 CALM      30.18F
ANGELUS OAKS     N/A     49  23  36 CALM      29.87F

$$

SOUTHERN DESERT INCLUDING THE COACHELLA VALLEY

CITY           SKY/WX    TMP DP  RH WIND       PRES   REMARKS
PALM SPRINGS   PTCLDY    72  35  25 CALM      29.88F
THOUSAND PALMS   N/A     75  30  19 W6        29.82F
PALM DESERT      N/A     70  36  28 CALM      31.41S
THERMAL        PTCLDY    67  36  31 N5        29.83S
BLYTHE         PTCLDY    60  24  25 N6        29.86S
IMPERIAL AP    CLEAR     64  35  34 W7        29.84S
EL CENTRO NAS  CLEAR     62  31  31 W8        29.86S
YUMA AZ        MOCLDY    64  37  36 CALM      29.86S

$$

UPPER DESERT

CITY           SKY/WX    TMP DP  RH WIND       PRES   REMARKS
VICTORVILLE AP PTCLDY    52  23  32 S9        30.02S
HESPERIA         N/A     55  30  39 NE3       29.96F
APPLE VALLEY     N/A     42  36  80 CALM      30.00S
PALMDALE       PTCLDY    53  29  39 S9        30.01F
LANCASTER      CLEAR     54  36  50 CALM      30.01S
EDWARDS AFB    PTCLDY    51  32  47 SW6       29.98S
DAGGETT        PTCLDY    61  30  31 W12       29.97S
29 PALMS N     PTCLDY    63  23  21 W7        30.02S
NEEDLES        PTCLDY    70  19  14 S5        29.88F

$$

REGIONAL REPORTS

CITY           SKY/WX    TMP DP  RH WIND       PRES   REMARKS
SANTA BARBARA  CLEAR     53  50  89 CALM      29.92S
SANDBERG       CLEAR     56  36  47 NW14      30.10S
LAS VEGAS NV   MOCLDY    64  28  25 SW3       29.97F
PHOENIX AZ     MOCLDY    67  38  34 E5        29.87F
TIJUANA        CLEAR     55  52  88 CALM      29.96

$$

OFFSHORE ISLANDS

CITY           SKY/WX    TMP DP  RH WIND       PRES   REMARKS
CATALINA ARPT  CLEAR     67  34  29 W9        29.98S

$$

MARINE AND OFFSHORE BUOY REPORTS

STATION/POSITION SKY/WX   TEMP    WIND        PRES    VSBY  SWELL
                          AIR SEA DIR/SP/G                  HT/PER/DIR
                          (F)     (DEG/KT/KT) (MB)    (MI)  (FT/S/D)
TANNER BANKS               58 57              1014.0F
S CLEMENTE BASIN           60 61  310/  6/  8 1013.6F         5/240/15
SAN NICOLAS IS.               56                N/A           5/300/17
SO. S. ROSA ISLA           55 55  310/ 16/ 17 1012.8R         7/260/16
W. S. BARBARA CH              53  320/ 16/ 17 1012.5R         7/290/15
M. S. BARBARA CH           55 55  210/  6/  8   N/A
S. MONICA BASIN                    40/  4/  4 1012.8
S PEDRO CHANNEL               56                N/A           2/170/17
CMP PENDLETON NS              59                N/A           2/210/15
OCEANSIDE OFFSHR              60                N/A           3/180/15
TORREY PINES OTR              60                N/A           3/210/15
SAN DIEGO BAY                 60              1013.3F
POINT LOMA SOUTH              60                N/A           3/190/15

$$





USA.gov is the U.S. government's official web portal to all federal, state and local government web resources and services.